Regional Weather Roundup
Issued by NWS

Home | Current Version | Previous Version | Text Only | Print | Product List | Glossary Off
Versions: 1 2 3 4 5 6 7 8 9 10 11 12 13 14 15 16 17 18 19 20 21 22 23 24 25 26 27 28 29 30 31 32 33 34 35 36 37 38 39 40 41 42 43 44 45 46 47 48 49 50

000
ASUS43 KMKX 261500
RWRWI

WISCONSIN REGIONAL WEATHER ROUNDUP
NATIONAL WEATHER SERVICE MILWAUKEE/SULLIVAN WI
1000 AM CDT MON JUN 26 2017

NOTE: "FAIR" INDICATES FEW OR NO CLOUDS BELOW 12,000 FEET WITH NO
SIGNIFICANT WEATHER AND/OR OBSTRUCTIONS TO VISIBILITY.

WIZ001-002-006>008-014>016-023>028-261600-
NORTHWEST WISCONSIN

CITY           SKY/WX    TMP DP  RH WIND       PRES   REMARKS
SUPERIOR ARPT  NOT AVBL
ASHLAND        MOSUNNY   56  48  74 VRB3      30.13S
HAYWARD        PTSUNNY   54  46  74 VRB3      30.14R
SIREN          SUNNY     59  47  64 N8        30.15S
CUMBERLAND     SUNNY     55  43  62 NW12      30.15S
RICE LAKE      MOSUNNY   57  44  62 NW9G16    30.16S
CHETEK         MOSUNNY   57  47  67 NW7       30.14S
LADYSMITH      PTSUNNY   55  47  74 N13       30.15R
EAU CLAIRE     NOT AVBL
MENOMONIE      SUNNY     59  47  63 NW10      30.16R
NEW RICHMOND   SUNNY     59  44  55 N10       30.18R
OSCEOLA        SUNNY     59  46  61 NW12      30.20S
$$

WIZ003>005-009-010-017-018-261600-
NORTH CENTRAL WISCONSIN

CITY           SKY/WX    TMP DP  RH WIND       PRES   REMARKS
MANITOWISH WTR RAIN      47  47 100 NW13G21   30.06S
ARBOR VITAE    LGT RAIN  49  47  93 N16       30.05R
WOODRUFF       LGT RAIN  49  47  93 N16       30.05R
RHINELANDER    CLOUDY    50  46  86 NW10G18   30.05S
EAGLE RIVER    CLOUDY    48  46  93 NW10      30.03S
LAND O LAKES   CLOUDY    48  46  91 N10       30.05S
PHILLIPS       DRIZZLE   47  46  96 NW9       30.10R
TOMAHAWK       NOT AVBL
MEDFORD        CLOUDY    48  44  85 NW12G17   30.10R
MERRILL        CLOUDY    49  45  84 NW9G20    30.08R
$$

WIZ029-030-035-036-043>047-261600-
CENTRAL WISCONSIN

CITY           SKY/WX    TMP DP  RH WIND       PRES   REMARKS
WAUSAU         CLOUDY    51  43  74 NW14G24   30.06S
MOSINEE        CLOUDY    52  45  76 NW13      30.08F
MARSHFIELD     LGT RAIN  50  44  80 N16G24    30.10R
STEVENS POINT  DRIZZLE   51  42  70 NW13      30.08F
WAUPACA        PTSUNNY   57  45  64 W13G18    30.08S
WAUTOMA        CLOUDY    56  44  64 NW18G24   30.09S
WISC RAPIDS    CLOUDY    56  44  64 NW14G25   30.10S
CAMP DOUGLAS   NOT AVBL
$$

WIZ011>013-019>022-031-037>040-048>050-261600-
NORTHEAST WISCONSIN

CITY           SKY/WX    TMP DP  RH WIND       PRES   REMARKS
ANTIGO         CLOUDY    47  44  87 NW10G20   30.05S
SHAWANO        CLOUDY    54  46  74 W10       30.04S
OCONTO         CLOUDY    54  46  72 W10       30.01S
STURGEON BAY     N/A     54  46  74 W13         N/A
GREEN BAY      CLOUDY    55  47  74 W14       30.03F
MANITOWOC      NOT AVBL
APPLETON       PTSUNNY   55  43  62 W16G22    30.04S
CLINTONVILLE   CLOUDY    54  41  62 NW15G21   30.04F
OSHKOSH        PTSUNNY   55  44  66 NW16G24   30.06R
$$

WIZ032>034-041-042-053>061-261600-
SOUTHWEST WISCONSIN

CITY           SKY/WX    TMP DP  RH WIND       PRES   REMARKS
LA CROSSE      SUNNY     65  46  50 NW8       30.15S
SPARTA         MOSUNNY   58  45  62 NW9       30.15S
VIROQUA        MOSUNNY   57  47  69 NW10G17   30.15S
BOSCOBEL       MOSUNNY   64  47  53 W13       30.15R
PRAIRIE DU CHI SUNNY     62  45  52 NW9G16    30.15S
PLATTEVILLE    SUNNY     63  47  57 NW12      30.14F
$$

WIZ056-057-062-063-064-067-068-261600-
SOUTH CENTRAL WISCONSIN

CITY           SKY/WX    TMP DP  RH WIND       PRES   REMARKS
REEDSBURG      SUNNY     57  45  64 NW10      30.12S
BARABOO/DELLS  SUNNY     58  44  59 NW9G17    30.12S
LONE ROCK      NOT AVBL
MINERAL POINT  SUNNY     61  48  63 NW8G16    30.14S
MADISON        MOSUNNY   60  48  64 NW10      30.10F
MIDDLETON      MOSUNNY   61  49  65 NW12G18   30.12S
WATERTOWN      NOT AVBL
MONROE         SUNNY     63  43  48 W7        30.12S
JANESVILLE     MOSUNNY   64  46  52 W10G16    30.10F
$$

WIZ051-052-058>065-066-070>072-261600-
SOUTHEAST WISCONSIN

CITY           SKY/WX    TMP DP  RH WIND       PRES   REMARKS
MILWAUKEE      MOSUNNY   65  46  50 NW12G22   30.07F
WAUKESHA       MOSUNNY   57  46  67 W14       30.10F
MILWAUKEE/TIMM MOSUNNY   61  45  55 W12G21    30.08S
RACINE         SUNNY     64  47  53 VRB7      30.09F
KENOSHA        SUNNY     65  49  56 W13       30.08F
FOND DU LAC    MOSUNNY   60  44  55 W17G24    30.06F
SHEBOYGAN      MOSUNNY   59  49  69 W15G22    30.04F
WEST BEND      SUNNY     59  43  55 W18G25    30.06F
JUNEAU         MOSUNNY   58  45  61 NW9       30.09F
$$

LSZ147-162-261600-
LAKE SUPERIOR

STATION/POSITION TIME  TEMP    WIND        PRES    WAVE
                       AIR SEA DIR/SP/G            HT/PER
                 (UTC) (F)     (DEG/KT/KT) (MB)    (FT/S)
W MID LAKE BUOY  1350   43 39  270/ 12/ 12 1018.4R   1/ 3
DEVILS ISLAND    1400   50     240/ 12/ 14 1019.6S
SAXON HARBOR     1430   53      40/  3/  5 1019.3S
$$

LMZ867-665-643>646-261600-
LAKE MICHIGAN

STATION/POSITION TIME  TEMP    WIND        PRES    WAVE
                       AIR SEA DIR/SP/G            HT/PER
                 (UTC) (F)     (DEG/KT/KT) (MB)    (FT/S)
CHAMBERS ISLAND  1440   56     270/  5/ 11 1014.9S
S GREEN BAY BUOY 1430   55     280/ 14/ 19 1015.9R
N MID LAKE BUOY  1250   54 56  250/ 12/ 16 1014.8S   2/ 4
NORTHPORT PIER   1440   56     310/  7/ 14 1014.9S
KEWAUNEE LAKESHO 1430   55     300/  7/ 15 1015.8F
SHEBOYGAN LAKESH 1400   56     300/ 15/ 17 1017.2S
PORT WASHINGTON  1430   62     280/  8/ 17 1018.3F
ATWATER BUOY     1309   59 56  270/ 14/ 17 1018.4F
MILWAUKEE LAKESH 1430   60     300/ 13/ 20   N/A
S MID LAKE BUOY  1350   59 61  300/ 14/ 16 1018.5F   3/ 5
KENOSHA   LAKESH 1400   61     280/ 10/ 14 1019.0
$$

TC  - TEMPERATURE IN CELSIUS
VSB - VISIBILITY IN STATUTE MILES
WCI - WIND CHILL INDEX
HX  - HEAT INDEX





USA.gov is the U.S. government's official web portal to all federal, state and local government web resources and services.